This demonstration page uses our WeatherBlox Daily Observations layout. Learn more.

41.86663, -103.66717

Hourly Observations for June 17, 2019

Temp ( °F °C ) Dew Point ( °F °C ) Humidity (%) Winds ( mph kmh ) Pressure ( in mb ) Visibility ( mi km ) Precip ( " mm )
12:53 am 00:53 Clear 57 13.9 57 13.9 100 100 S 9 15 29.93 1014 10 16.0934 0 0
1:53 am 01:53 Clear 56 13.3 56 13.3 100 100 SW 3 6 29.92 1013 10 16.0934 0 0
2:53 am 02:53 Clear 56 13.3 56 13.3 100 100 Calm 29.92 1013 10 16.0934 0 0
3:53 am 03:53 Clear 56 13.3 56 13.3 100 100 Calm 29.92 1013 10 16.0934 0 0
4:53 am 04:53 Mostly Clear 56 13.3 56 13.3 100 100 Calm 29.93 1014 10 16.0934 0 0
5:53 am 05:53 Mostly Sunny 55 12.8 55 12.8 100 100 E 5 7 29.94 1014 9 14.48406 0 0
6:53 am 06:53 Partly Cloudy 59 15 59 15 100 100 ESE 3 6 29.93 1014 10 16.0934 0 0
7:53 am 07:53 Sunny 62 16.7 59 15 90 90 ESE 5 7 29.93 1014 10 16.0934 0 0
8:53 am 08:53 Mostly Cloudy 63 17.2 60 15.6 90 90 ENE 6 9 29.96 1015 10 16.0934 0 0
9:08 am 09:08 Partly Cloudy 63 17.2 60 15.6 90 90 E 7 11 29.91 1013 10 16.0934 0 0
9:48 am 09:48 Mostly Cloudy 64 18 61 16 88 88 VRB 3 6 29.92 1013 10 16.0934 0 0
9:53 am 09:53 Mostly Cloudy 64 17.8 60 15.6 87 87 Calm 29.98 1015 10 16.0934 0 0
10:06 am 10:06 Cloudy 64 18 61 16 88 88 Calm 29.91 1013 10 16.0934 0 0
10:53 am 10:53 Cloudy 67 19.4 61 16.1 81 81 ENE 7 11 29.98 1015 10 16.0934 0 0
11:31 am 11:31 Cloudy 71 21.7 63 17.2 76 76 NE 7 11 29.87 1011 10 16.0934 0 0
11:53 am 11:53 Mostly Cloudy 71 21.7 61 16.1 71 71 N 7 11 29.97 1015 10 16.0934 0 0
12:00 pm 12:00 Mostly Cloudy 72 22.2 62 16.7 71 71 NNE 6 9 29.85 1011 10 16.0934 0 0
12:15 pm 12:15 Mostly Cloudy 70 21.1 61 16.1 73 73 NE 7 11 29.87 1011 10 16.0934 0 0
12:24 pm 12:24 Mostly Cloudy 72 22.2 62 16.7 71 71 E 6 9 29.85 1011 10 16.0934 0 0
12:53 pm 12:53 Mostly Sunny 72 22.2 62 16.7 71 71 E 5 7 29.96 1015 10 16.0934 0 0
1:53 pm 13:53 Mostly Sunny 75 23.9 63 17.2 66 66 ENE 7 11 29.93 1014 10 16.0934 0 0
2:53 pm 14:53 Partly Cloudy 75 23.9 62 16.7 64 64 NE 12 19 29.92 1013 10 16.0934 0 0
3:53 pm 15:53 Mostly Sunny 76 24.4 63 17.2 64 64 NE 13 20 29.91 1013 10 16.0934 0 0
4:53 pm 16:53 Mostly Sunny 71 21.7 60 15.6 68 68 ENE 12 19 29.93 1014 10 16.0934 0 0
5:18 pm 17:18 Partly Cloudy with Nearby Thunderstorms 72 22 59 15 65 65 NE 14 22 29.8 1009 10 16.0934 0 0
5:53 pm 17:53 Partly Cloudy with Nearby Thunderstorms 69 20.6 59 15 70 70 NE 18 30 29.93 1014 10 16.0934 0 0
6:38 pm 18:38 Mostly Sunny 66 19 59 15 78 78 NE 14 22 29.88 1012 10 16.0934 0 0
6:53 pm 18:53 Mostly Cloudy 65 18.3 59 15 81 81 NNE 14 22 29.96 1015 10 16.0934 0 0
7:53 pm 19:53 Cloudy with Light Rain 62 16.7 62 16.7 100 100 ENE 9 15 29.99 1016 9 14.48406 0.04 1.016
8:49 pm 20:49 Cloudy with Light Rain 61 16 61 16 100 100 ENE 14 22 29.96 1014 10 16.0934 0.02 0.508
8:53 pm 20:53 Cloudy with Light Rain 61 16.1 61 16.1 100 100 E 15 24 30 1016 10 16.0934 0.02 0.508
9:07 pm 21:07 Cloudy with Light Rain 61 16.1 61 16.1 100 100 E 13 20 29.97 1015 10 16.0934 0 0.0254
9:53 pm 21:53 Cloudy 60 15.6 60 15.6 100 100 ENE 9 15 30.02 1017 10 16.0934 0 0.0254
10:02 pm 22:02 Cloudy 61 16.1 60 15.6 97 97 ENE 10 17 29.98 1015 10 16.0934 0 0
10:53 pm 22:53 Cloudy with Light Rain 61 16.1 61 16.1 100 100 ESE 8 13 30.02 1017 10 16.0934 0 0.0254
11:39 pm 23:39 Cloudy 60 15.6 60 15.6 100 100 ESE 8 13 29.99 1016 10 16.0934 0 0.0254
11:53 pm 23:53 Cloudy 60 15.6 60 15.6 100 100 E 7 11 30.01 1016 10 16.0934 0 0.0254

Powered by AerisWeather